AE7MK-13 Weather Reports


time (UTC)temp
C
wind
direction
speed
KPH
gust
KPH
rain 1hr
cm
rain 24hr
cm
rain mn
cm
humidity
%
barometer
mb
20260509071003 8 304 11.3 17.7 0.00 0.00 0.00 51 1019.3
20260509070004 8 299 12.9 20.9 0.00 0.00 0.00 50 1019.2
20260509065003 8 292 16.1 22.5 0.00 0.00 0.00 49 1019.1
20260509064214 8 291 12.9 30.6 0.00 0.00 0.00 50 1019.1
20260509063003 7 288 9.7 19.3 0.00 0.00 0.00 53 1019.3
20260509062003 7 291 9.7 20.9 0.00 0.00 0.00 53 1019.2
20260509061214 7 290 9.7 16.1 0.00 0.00 0.00 52 1019.2
20260509060004 8 285 16.1 27.4 0.00 0.00 0.00 50 1018.9
20260509055214 8 282 17.7 27.4 0.00 0.00 0.00 50 1018.9
20260509054003 8 295 17.7 25.7 0.00 0.00 0.00 48 1019.0
20260509053213 8 300 19.3 29.0 0.00 0.00 0.00 47 1018.9
20260509052003 8 296 22.5 35.4 0.00 0.00 0.00 46 1018.7
20260509051003 9 294 25.7 41.8 0.00 0.00 0.00 45 1018.4
20260509050213 9 289 27.4 38.6 0.00 0.00 0.00 45 1018.2
20260509045003 9 293 29.0 43.5 0.00 0.00 0.00 44 1018.3
20260509044003 10 287 30.6 41.8 0.00 0.00 0.00 43 1018.2
20260509043003 10 290 29.0 43.5 0.00 0.00 0.00 42 1018.3
20260509042003 10 284 30.6 51.5 0.00 0.00 0.00 41 1018.2
20260509041213 10 282 29.0 51.5 0.00 0.00 0.00 40 1018.1
20260509040003 11 281 35.4 53.1 0.00 0.00 0.00 37 1017.7
20260509035003 11 278 37.0 56.3 0.00 0.00 0.00 37 1017.2
20260509034003 11 275 37.0 59.5 0.00 0.00 0.00 35 1017.1
20260509033003 10 264 38.6 51.5 0.00 0.00 0.00 35 1016.9
20260509032003 11 269 37.0 48.3 0.00 0.00 0.00 33 1016.9
20260509031003 11 269 32.2 51.5 0.00 0.00 0.00 34 1017.1
20260509030004 11 277 30.6 41.8 0.00 0.00 0.00 33 1017.3
20260509025003 11 278 30.6 45.1 0.00 0.00 0.00 33 1017.3
20260509024003 12 279 27.4 41.8 0.00 0.00 0.00 32 1017.3
20260509023003 12 293 25.7 38.6 0.00 0.00 0.00 32 1017.5
20260509022003 12 296 24.1 35.4 0.00 0.00 0.00 32 1017.4
20260509021003 12 293 27.4 41.8 0.00 0.00 0.00 31 1017.5
20260509020214 13 292 24.1 41.8 0.00 0.00 0.00 30 1017.3
20260509015003 13 284 24.1 40.2 0.00 0.00 0.00 29 1017.3
20260509014214 13 279 24.1 40.2 0.00 0.00 0.00 29 1017.3
20260509013003 13 284 22.5 35.4 0.00 0.00 0.00 27 1017.0
20260509012003 13 276 22.5 37.0 0.00 0.00 0.00 28 1017.0
20260509011003 13 274 24.1 38.6 0.00 0.00 0.00 27 1016.9
20260509010214 13 274 25.7 40.2 0.00 0.00 0.00 27 1016.9
20260509005003 13 295 29.0 45.1 0.00 0.00 0.00 27 1017.0
20260509004003 14 302 20.9 41.8 0.00 0.00 0.00 26 1017.1
20260509003214 14 304 25.7 38.6 0.00 0.00 0.00 28 1017.1
20260509002003 14 304 24.1 40.2 0.00 0.00 0.00 27 1016.8
20260509001003 14 302 20.9 33.8 0.00 0.00 0.00 27 1016.6
20260509000214 14 303 19.3 30.6 0.00 0.00 0.00 26 1016.7
20260508235003 13 298 24.1 37.0 0.00 0.00 0.00 26 1016.7
20260508234213 13 291 24.1 37.0 0.00 0.00 0.00 25 1016.7
20260508233003 13 296 29.0 45.1 0.00 0.00 0.00 22 1016.5
20260508232003 13 299 25.7 38.6 0.00 0.00 0.00 23 1016.6
20260508231003 13 288 22.5 40.2 0.00 0.00 0.00 21 1016.6
20260508230005 14 287 25.7 37.0 0.00 0.00 0.00 22 1016.5
20260508225213 14 282 27.4 41.8 0.00 0.00 0.00 21 1016.3
20260508224003 14 292 24.1 33.8 0.00 0.00 0.00 22 1016.2
20260508223003 13 289 25.7 37.0 0.00 0.00 0.00 20 1016.1
20260508222003 15 285 29.0 43.5 0.00 0.00 0.00 18 1016.2
20260508221003 15 277 30.6 41.8 0.00 0.00 0.00 16 1016.0
20260508220213 15 275 24.1 41.8 0.00 0.00 0.00 17 1016.1
20260508215003 15 295 20.9 32.2 0.00 0.00 0.00 20 1016.0
20260508214212 15 292 19.3 32.2 0.00 0.00 0.00 20 1015.9
20260508213004 15 291 17.7 25.7 0.00 0.00 0.00 21 1015.8
20260508212003 15 298 17.7 30.6 0.00 0.00 0.00 19 1015.8
20260508211003 15 303 17.7 32.2 0.00 0.00 0.00 21 1015.8
20260508210003 15 290 17.7 25.7 0.00 0.00 0.00 18 1015.7
20260508205212 15 298 20.9 30.6 0.00 0.00 0.00 20 1015.6
20260508204003 15 296 20.9 33.8 0.00 0.00 0.00 21 1015.6
20260508203003 15 299 19.3 33.8 0.00 0.00 0.00 21 1015.6
20260508202003 15 296 17.7 32.2 0.00 0.00 0.00 22 1015.7
20260508201003 15 298 17.7 24.1 0.00 0.00 0.00 24 1015.6
20260508200214 15 284 14.5 20.9 0.00 0.00 0.00 25 1015.6
20260508195004 14 275 19.3 30.6 0.00 0.00 0.00 26 1015.4
20260508194214 14 266 19.3 30.6 0.00 0.00 0.00 24 1015.4
20260508193003 15 276 16.1 27.4 0.00 0.00 0.00 24 1015.0
20260508192003 15 256 16.1 27.4 0.00 0.00 0.00 25 1015.2
20260508191003 14 253 16.1 27.4 0.00 0.00 0.00 28 1015.0
20260508190003 14 261 17.7 25.7 0.00 0.00 0.00 26 1015.1
20260508185213 14 272 17.7 29.0 0.00 0.00 0.00 25 1015.1
20260508184003 15 266 17.7 30.6 0.00 0.00 0.00 25 1015.2
20260508183213 15 261 14.5 30.6 0.00 0.00 0.00 23 1015.2
20260508182003 14 266 16.1 27.4 0.00 0.00 0.00 21 1015.3
20260508181003 13 243 20.9 30.6 0.00 0.00 0.00 22 1015.2
20260508180005 13 242 17.7 29.0 0.00 0.00 0.00 24 1015.2
20260508175003 13 265 12.9 20.9 0.00 0.00 0.00 23 1015.2
20260508174003 13 274 14.5 20.9 0.00 0.00 0.00 22 1015.1
20260508173003 12 274 14.5 24.1 0.00 0.00 0.00 26 1015.1
20260508172003 12 250 17.7 22.5 0.00 0.00 0.00 25 1014.9
20260508171003 12 243 17.7 24.1 0.00 0.00 0.00 22 1014.9
20260508170003 12 236 16.1 22.5 0.00 0.00 0.00 21 1015.0
20260508165004 12 244 12.9 20.9 0.00 0.00 0.00 19 1014.9
20260508164003 12 254 8.0 14.5 0.00 0.00 0.00 19 1014.9
20260508163003 12 251 12.9 19.3 0.00 0.00 0.00 18 1014.8
20260508162003 12 243 14.5 20.9 0.00 0.00 0.00 19 1014.8
20260508161212 12 233 12.9 19.3 0.00 0.00 0.00 18 1014.8
20260508160004 12 251 4.8 9.7 0.00 0.00 0.00 19 1014.5
20260508155003 12 248 8.0 12.9 0.00 0.00 0.00 18 1014.6
20260508154003 12 243 9.7 14.5 0.00 0.00 0.00 17 1014.5
20260508153003 12 253 8.0 12.9 0.00 0.00 0.00 19 1014.6
20260508152003 12 257 6.4 12.9 0.00 0.00 0.00 21 1014.5
20260508151003 12 264 3.2 9.7 0.00 0.00 0.00 27 1014.5
20260508150004 12 269 0.0 8.0 0.00 0.00 0.00 26 1014.4
20260508145003 12 271 3.2 6.4 0.00 0.00 0.00 25 1014.4
20260508144003 12 264 1.6 8.0 0.00 0.00 0.00 25 1014.4
20260508143003 12 299 3.2 9.7 0.00 0.00 0.00 28 1014.4
20260508142214 12 309 1.6 6.4 0.00 0.00 0.00 23 1014.2
20260508141003 12 0 0.0 0.0 0.00 0.00 0.00 28 1014.2
20260508140003 12 308 0.0 6.4 0.00 0.00 0.00 25 1014.2
20260508135003 12 309 8.0 16.1 0.00 0.00 0.00 21 1014.3
20260508134003 12 309 8.0 14.5 0.00 0.00 0.00 19 1014.1
20260508133003 12 307 9.7 14.5 0.00 0.00 0.00 19 1014.0
20260508132003 12 311 4.8 14.5 0.00 0.00 0.00 21 1013.8
20260508131003 11 318 3.2 12.9 0.00 0.00 0.00 23 1013.7
20260508130003 10 337 0.0 4.8 0.00 0.00 0.00 34 1013.8
20260508125213 10 0 0.0 0.0 0.00 0.00 0.00 39 1014.0
20260508124213 10 338 3.2 6.4 0.00 0.00 0.00 36 1014.0
20260508123003 10 324 4.8 6.4 0.00 0.00 0.00 36 1014.0
20260508122003 10 321 4.8 8.0 0.00 0.00 0.00 37 1014.0
20260508121003 9 339 6.4 6.4 0.00 0.00 0.00 41 1014.1
20260508120004 9 339 4.8 6.4 0.00 0.00 0.00 40 1014.2
20260508115003 9 336 4.8 8.0 0.00 0.00 0.00 40 1014.3
20260508114003 9 334 6.4 8.0 0.00 0.00 0.00 41 1014.2
20260508113003 10 330 1.6 8.0 0.00 0.00 0.00 38 1014.1
20260508112213 10 330 1.6 6.4 0.00 0.00 0.00 36 1014.2
20260508111003 10 330 4.8 6.4 0.00 0.00 0.00 39 1014.2
20260508110003 9 330 4.8 8.0 0.00 0.00 0.00 40 1014.2
20260508105003 10 329 3.2 6.4 0.00 0.00 0.00 40 1014.2
20260508104003 11 0 0.0 0.0 0.00 0.00 0.00 36 1014.1
20260508103004 11 329 3.2 6.4 0.00 0.00 0.00 36 1014.1
20260508102003 11 325 3.2 6.4 0.00 0.00 0.00 36 1014.1
20260508101003 11 311 3.2 8.0 0.00 0.00 0.00 37 1014.1
20260508100004 11 300 6.4 8.0 0.00 0.00 0.00 35 1014.1
20260508095003 11 293 4.8 9.7 0.00 0.00 0.00 36 1014.2
20260508094003 12 288 8.0 9.7 0.00 0.00 0.00 33 1014.2
20260508093003 12 286 6.4 9.7 0.00 0.00 0.00 32 1014.3
20260508092003 12 286 6.4 9.7 0.00 0.00 0.00 33 1014.3
20260508091003 12 290 6.4 9.7 0.00 0.00 0.00 35 1014.4
20260508090003 12 291 6.4 11.3 0.00 0.00 0.00 35 1014.4
20260508085003 11 316 4.8 9.7 0.00 0.00 0.00 39 1014.4
20260508084214 11 319 4.8 9.7 0.00 0.00 0.00 39 1014.4
20260508083003 12 299 6.4 9.7 0.00 0.00 0.00 36 1014.6
20260508082214 12 294 6.4 9.7 0.00 0.00 0.00 35 1014.5
20260508081004 12 287 8.0 11.3 0.00 0.00 0.00 35 1014.6
20260508080004 12 286 8.0 11.3 0.00 0.00 0.00 35 1014.7
20260508075003 12 289 6.4 9.7 0.00 0.00 0.00 36 1014.7
20260508074003 11 301 4.8 8.0 0.00 0.00 0.00 39 1014.8
20260508073213 11 299 4.8 8.0 0.00 0.00 0.00 40 1014.8
20260508072213 12 298 4.8 8.0 0.00 0.00 0.00 39 1014.8